Weather History for Big Piney, WY

Change the Weather History Date:

Friday, April 4, 2014

  Actual Average Record
Temperature  
Mean Temperature 29 °F 34 °F  
Max Temperature 45 °F 49 °F 66 °F (2000)
Min Temperature 13 °F 19 °F 4 °F (1999)
Degree Days  
Heating Degree Days 36 31  
Month to date heating degree days 144 125  
Since 1 July heating degree days 8147 8820  
Cooling Degree Days 0 0  
Month to date cooling degree days 0 0  
Year to date cooling degree days 0 0  
Moisture  
Dew Point 17 °F    
Average Humidity 56    
Maximum Humidity 84    
Minimum Humidity 27    
Precipitation  
Precipitation 0.00 in 0.01 in 0.07 in (1989)
Month to date precipitation T 0.06  
Year to date precipitation 0.16 1.16  
Sea Level Pressure  
Sea Level Pressure 29.99 in    
Wind  
Wind Speed 5 mph (North)    
Max Wind Speed 18 mph    
Max Gust Speed 24 mph    
Visibility 10 miles    
Events      
T = Trace of Precipitation, MM = Missing Value Source: NWS Daily Summary

Daily Weather History Graph

Daily Weather History Graph

Search for Another Location

Airport:

Trip Planner

Search our weather history database for the weather conditions in past years. The results will help you decide how hot, cold, wet, or windy it might be!

Date:

Astronomy

Apr. 04, 2014 Rise Set
Actual Time 6:57 AM MDT 7:49 PM MDT
Civil Twilight 6:28 AM MDT 8:18 PM MDT
Nautical Twilight 5:54 AM MDT 8:52 PM MDT
Astronomical Twilight 5:19 AM MDT 9:28 PM MDT
Moon 10:12 AM MDT (4/4) 12:15 AM MDT (4/4)
Length of Visible Light 13h 49m
Length of Day
12h 52m
Waxing Crescent, 26% of the Moon is Illuminated
Apr 4
Waxing Crescent
Apr 7
First Quarter
Apr 15
Full
Apr 22
Last Quarter
Apr 29
New

Hourly Weather History & Observations

Time (MDT) Temp. Windchill Dew Point Humidity Pressure Visibility Wind Dir Wind Speed Gust Speed Precip Events Conditions
12:53 AM 21.9 °F 15.7 °F 15.1 °F 75% 30.06 in 10.0 mi NNE 4.6 mph - N/A   Clear
1:53 AM 19.0 °F - 15.1 °F 85% 30.07 in 10.0 mi Calm Calm - N/A   Clear
2:53 AM 21.0 °F - 15.1 °F 78% 30.04 in 10.0 mi Calm Calm - N/A   Clear
3:53 AM 17.1 °F 8.7 °F 12.0 °F 81% 30.06 in 10.0 mi ENE 5.8 mph - N/A   Clear
4:53 AM 16.0 °F - 10.9 °F 81% 30.06 in 10.0 mi Calm Calm - N/A   Clear
5:53 AM 19.0 °F - 14.0 °F 81% 30.05 in 10.0 mi Calm Calm - N/A   Scattered Clouds
6:53 AM 14.0 °F - 9.0 °F 80% 30.07 in 10.0 mi Calm Calm - N/A   Clear
7:53 AM 19.0 °F - 14.0 °F 81% 30.08 in 10.0 mi Calm Calm - N/A   Clear
8:53 AM 25.0 °F 19.3 °F 16.0 °F 69% 30.07 in 10.0 mi NE 4.6 mph - N/A   Clear
9:53 AM 28.9 °F 22.8 °F 15.1 °F 56% 30.06 in 10.0 mi ESE 5.8 mph - N/A   Mostly Cloudy
10:53 AM 34.0 °F 31.0 °F 16.0 °F 48% 30.04 in 10.0 mi Variable 3.5 mph - N/A   Clear
11:53 AM 37.9 °F 33.5 °F 16.0 °F 41% 30.00 in 10.0 mi Variable 5.8 mph - N/A   Mostly Cloudy
12:53 PM 41.0 °F 37.1 °F 16.0 °F 36% 29.94 in 10.0 mi Variable 5.8 mph - N/A   Mostly Cloudy
1:53 PM 42.1 °F 37.1 °F 10.9 °F 28% 29.93 in 10.0 mi WNW 8.1 mph - N/A   Overcast
2:53 PM 41.0 °F 35.2 °F 14.0 °F 33% 29.91 in 10.0 mi NW 9.2 mph - N/A   Overcast
3:53 PM 43.0 °F 38.8 °F 14.0 °F 31% 29.91 in 10.0 mi Variable 6.9 mph 16.1 mph N/A   Scattered Clouds
4:53 PM 43.0 °F 37.2 °F 18.0 °F 37% 29.90 in 10.0 mi NNW 10.4 mph - N/A   Clear
5:53 PM 43.0 °F 37.7 °F 19.0 °F 38% 29.88 in 10.0 mi NNW 9.2 mph - N/A   Mostly Cloudy
6:53 PM 39.9 °F 32.5 °F 21.0 °F 47% 29.94 in 10.0 mi NNW 12.7 mph - N/A   Scattered Clouds
7:53 PM 36.0 °F 28.0 °F 21.0 °F 55% 29.95 in 10.0 mi NW 11.5 mph - N/A   Overcast
8:53 PM 32.0 °F 27.5 °F 24.1 °F 73% 29.95 in 10.0 mi North 4.6 mph - N/A   Overcast
9:53 PM 30.9 °F 26.2 °F 25.0 °F 79% 29.95 in 10.0 mi East 4.6 mph - N/A   Partly Cloudy
10:53 PM 30.0 °F - 24.1 °F 79% 29.93 in 10.0 mi Calm Calm - N/A   Mostly Cloudy
11:53 PM 28.0 °F 24.2 °F 23.0 °F 81% 29.91 in 10.0 mi NNW 3.5 mph - N/A   Overcast